Weather Roundup
Issued by NWS

Home | Current Version | Previous Version | Graphics & Text | Print | Product List | Glossary Off
Versions: 1 2 3 4 5 6 7 8 9 10 11 12 13 14 15 16 17 18 19 20 21 22 23 24 25 26 27 28 29 30 31 32 33 34 35 36 37 38 39 40 41 42 43 44 45 46 47 48 49 50

855
NZUS93 KARX 240610
HRRWXR

CURRENT HOURLY OBSERVATIONS ACROSS
MUCH OF THE UPPER MISSISSIPPI VALLEY
NATIONAL WEATHER SERVICE LA CROSSE WI
100 AM CDT TUE MAY 24 2016


...SOUTHEAST MINNESOTA...


CITY           SKY/WX    TMP DP  RH WIND       PRES   REMARKS
ROCHESTER      CLOUDY    66  62  87 S13       29.83F
ROCHESTER/MAYO FAIR      66  62  87 CALM      29.83F
WINONA         CLOUDY    66  61  82 SE3       29.85S
AUSTIN         CLOUDY    64  61  88 S6        29.85R
ALBERT LEA     CLOUDY    66  61  82 S7        29.84R
DODGE CENTER   RAIN      64  61  88 SW12      29.86R
PRESTON        CLOUDY    63  60  91 SW3       29.87S
OWATONNA       CLOUDY    66  59  77 S12       29.84S
FARIBAULT      CLOUDY    66  61  82 S3        29.83S
$$

...ELSEWHERE IN MINNESOTA...


CITY           SKY/WX    TMP DP  RH WIND       PRES   REMARKS
MINNEAPOLIS    CLOUDY    66  60  81 SE9       29.80F
INTNL FALLS    CLOUDY    51  51 100 CALM      29.75R FOG
DULUTH         CLOUDY    61  59  93 S6        29.79S
RED WING       LGT RAIN  64  63  94 CALM      29.83R
REDWOOD FALLS  CLOUDY    63  60  90 S8        29.77R
MANKATO        CLOUDY    66  61  82 S7        29.82S
WORTHINGTON    CLOUDY    63  61  93 S10       29.80F
FAIRMONT       CLOUDY    64  61  88 S14       29.81S
$$

...SOUTHWEST WISCONSIN...


CITY           SKY/WX    TMP DP  RH WIND       PRES   REMARKS
LA CROSSE      CLOUDY    69  59  70 CALM      29.85S
PRAIRIE DU CHI CLOUDY    67  48  49 CALM      29.87S
BOSCOBEL       NOT AVBL
LONE ROCK      CLOUDY    58  50  75 E3        29.89S
PLATTEVILLE    CLOUDY    64  48  55 S5        29.90S
FORT MC COY    CLOUDY    63  56  80 E3        29.87S
CAMP DOUGLAS   MOCLDY    61  53  75 S6        29.86F
MAUSTON-NEW LI PTCLDY    66  49  53 SW5       29.86F
VIROQUA        FAIR      68  47  47 S8        29.89S
WIS DELLS      CLOUDY    60  46  59 S5        29.89S
$$

...ELSEWHERE IN WISCONSIN...


CITY           SKY/WX    TMP DP  RH WIND       PRES   REMARKS
MILWAUKEE      PTCLDY    63  39  41 S6        29.92S
MADISON        CLEAR     61  50  67 SW3       29.90R
GREEN BAY      PTCLDY    63  42  46 S8        29.88S
EAU CLAIRE     LGT RAIN  64  62  93 SW3       29.84F
BLACK RVR FLS  MOCLDY    63  54  74 CALM      29.86S
MEDFORD        CLOUDY    66  55  67 SW6       29.88S
WAUSAU         MOCLDY    64  51  62 E3        29.87S
WIS RAPIDS     PTCLDY    61  46  57 CALM      29.89R
MARSHFIELD     CLOUDY    64  51  62 CALM      29.87F
RICE LAKE      CLOUDY    66  56  71 CALM      29.86F
$$

...NORTHEAST IOWA...


CITY           SKY/WX    TMP DP  RH WIND       PRES   REMARKS
WATERLOO       MOCLDY    67  53  61 S6        29.87R
DUBUQUE        MOCLDY    66  49  54 S12       29.90F
DECORAH        CLOUDY    70  54  56 S7        29.87R
MASON CITY     CLOUDY    65  61  87 S10       29.86S
CHARLES CITY   CLOUDY    68  63  83 SW6       29.88S
OELWEIN        CLOUDY    66  54  63 S7        29.89R
$$

...ELSEWHERE IN IOWA...


CITY           SKY/WX    TMP DP  RH WIND       PRES   REMARKS
DES MOINES     MOCLDY    68  60  75 S8        29.87S
IOWA CITY      PTCLDY    64  54  69 CALM      29.91R
FORT DODGE     PTCLDY    64  57  77 S7        29.86F
MARSHALLTOWN   PTCLDY    66  55  67 S6        29.87R
CEDAR RAPIDS   PTCLDY    66  54  65 S8        29.89R
$$

...NORTHERN ILLINOIS...


CITY           SKY/WX    TMP DP  RH WIND       PRES   REMARKS
CHICAGO-OHARE  PTCLDY    60  43  53 S6        29.94R
CHICAGO-MIDWAY PTCLDY    70  40  33 S8        29.95R
MOLINE         CLOUDY    68  48  48 CALM      29.91R
ROCKFORD       CLOUDY    66  47  50 S3        29.94R
PEORIA         CLOUDY    65  50  58 S6        29.95R
$$

NOTE: "FAIR" INDICATES FEW OR NO CLOUDS BELOW 12,000 FEET WITH NO
SIGNIFICANT WEATHER AND/OR OBSTRUCTIONS TO VISIBILITY. WIND
SPEEDS ARE IN MILES-PER-HOUR.




USA.gov is the U.S. government's official web portal to all federal, state and local government web resources and services.